Flag for United Kingdom Weather past 2 weeks in Gloucester, England, United Kingdom

Now
52 °F

Passing clouds.


Feels Like: 50 °F
Forecast: N/A
Wind: 6 mph from Southwest

Location: Staverton Private

Current Time: Mar 27, 2015 at 3:42:17 PM

Latest Report: Mar 27, 2015 at 3:20 PM


Visibility: N/A

Pressure: 30.12 "Hg

Humidity: 58%

Dew point: 37 °F

Location of GloucesterLocation

Historic Weather in Gloucester — Graph

°F

Gloucester temperature yesterday

Maximum temperature yesterday: 55 °F (at 1:20 PM)
Minimum temperature yesterday: 45 °F (at 6:50 AM)
Average temperature yesterday: 50 °F

Past Weeks' High & Low Weather Summary

 TemperatureHumidityPressure
High57 °F (Mar 12, 2:20 PM)100% (Mar 13, 12:50 PM)30.57 "Hg (Mar 13, 12:50 PM)
Low34 °F (Mar 18, 6:50 AM)33% (Mar 12, 2:50 PM)29.50 "Hg (Mar 26, 6:50 AM)
Average46 °F76%30.19 "Hg
* Reported Mar 12 2:20 PM — Mar 27 2:20 PM, Gloucester, Weather by CustomWeather, © 2015

Note: Actual official high and low records may vary slightly from our data, if they occured in-between our weather recording intervals... More about our weather records

Advertising

Gloucester weather history for previous 24 hours

 ConditionsComfort  
Time TempWeatherWind HumidityBarometerVisibility
2:20 PM
Fri, Mar 27
54 °FScattered clouds.7 mph54%30.09 "HgN/A
1:50 PM52 °FScattered clouds.5 mph58%30.12 "HgN/A
1:20 PM52 °FScattered clouds.7 mph58%30.12 "HgN/A
12:50 PM52 °FScattered clouds.6 mph58%30.12 "HgN/A
12:20 PM52 °FScattered clouds.9 mph50%30.12 "HgN/A
11:50 AM50 °FPassing clouds.8 mph62%30.12 "HgN/A
11:20 AM50 °FPassing clouds.5 mph62%30.12 "HgN/A
10:50 AM48 °FPassing clouds.7 mph66%30.12 "HgN/A
10:20 AM50 °FPassing clouds.7 mph58%30.12 "HgN/A
9:50 AM48 °FPassing clouds.5 mph66%30.12 "HgN/A
9:20 AM46 °FSunny.5 mph76%30.12 "Hg10 mi
8:50 AM45 °FSunny.5 mph76%30.12 "Hg10 mi
8:20 AM43 °FSunny.5 mph81%30.12 "Hg10 mi
7:50 AM41 °FSunny.3 mph87%30.12 "Hg10 mi
7:20 PM
Thu, Mar 26
45 °FPassing clouds.2 mph66%29.89 "HgN/A
6:50 PM46 °FPassing clouds.5 mph62%29.86 "HgN/A
6:20 PM48 °FPassing clouds.12 mph58%29.86 "HgN/A
5:50 PM50 °FPassing clouds.10 mph54%29.83 "HgN/A
5:20 PM50 °FPassing clouds.16 mph58%29.80 "HgN/A
4:50 PM50 °FScattered clouds.18 mph54%29.80 "HgN/A
4:20 PM52 °FPassing clouds.17 mph50%29.77 "HgN/A
3:50 PM50 °FPassing clouds.16 mph50%29.77 "HgN/A
3:20 PM52 °FPassing clouds.16 mph47%29.74 "HgN/A
Weather by CustomWeather, © 2015

See weather overviewHow to use our weather pages